CW9259 Weather Reports


time (UTC)temp
C
wind
direction
speed
KPH
gust
KPH
rain 1hr
cm
rain 24hr
cm
rain mn
cm
humidity
%
barometer
mb
20260504171557 13 360 3.2 16.1 0.08 0.08 0.08 80 1014.6
20260504170134 14 297 3.2 6.4 0.05 0.05 0.05 80 1014.4
20260504160128 15 167 1.6 4.8 0.00 0.00 0.00 68 1013.7
20260504150123 16 289 16.1 29.0 0.00 0.00 0.00 58 1014.0
20260504140140 16 253 8.0 24.1 0.00 0.00 0.00 59 1014.4
20260504130139 15 308 12.9 27.4 0.00 0.00 0.00 64 1014.9
20260504120133 15 260 12.9 24.1 0.00 0.00 0.00 70 1015.3
20260504100130 16 40 4.8 8.0 0.00 0.00 0.00 62 1015.4
20260504090124 16 97 4.8 9.7 0.00 0.00 0.00 62 1015.6
20260504081603 15 75 3.2 6.4 0.00 0.00 0.00 64 1015.3
20260504080140 14 103 0.0 1.6 0.00 0.00 0.00 69 1015.3
20260504070133 13 95 0.0 0.0 0.00 0.00 0.00 75 1014.8
20260504060125 12 98 1.6 4.8 0.00 0.00 0.00 85 1014.3
20260504050121 11 325 1.6 3.2 0.00 0.00 0.00 86 1014.0
20260504044557 11 321 0.0 0.0 0.00 0.00 0.00 85 1013.9
20260504043128 11 321 0.0 3.2 0.00 0.00 0.00 84 1013.7
20260504041558 11 321 0.0 4.8 0.00 0.00 0.00 84 1013.6
20260504040134 11 334 4.8 6.4 0.00 0.00 0.00 84 1013.5
20260504034558 11 312 0.0 3.2 0.00 0.00 0.00 84 1013.7
20260504033132 11 337 4.8 6.4 0.00 0.00 0.00 85 1013.6
20260504031601 11 304 0.0 0.0 0.00 0.00 0.00 85 1013.7
20260504030130 11 304 0.0 0.0 0.00 0.00 0.00 84 1013.6
20260504024559 11 268 0.0 6.4 0.00 0.00 0.00 84 1013.6
20260504023140 11 321 3.2 6.4 0.00 0.00 0.00 84 1013.6
20260504021559 11 355 0.0 3.2 0.00 0.00 0.00 83 1013.9
20260504020126 12 344 1.6 4.8 0.00 0.00 0.00 82 1013.9
20260504014607 12 319 4.8 8.0 0.00 0.00 0.00 81 1013.7
20260504013132 12 331 1.6 3.2 0.00 0.00 0.00 80 1013.9
20260504011559 12 332 3.2 4.8 0.00 0.00 0.00 80 1014.0
20260504010141 12 198 1.6 4.8 0.00 0.00 0.00 80 1014.2
20260504004559 12 167 1.6 4.8 0.00 0.00 0.00 80 1014.2
20260504003130 13 209 0.0 3.2 0.00 0.00 0.00 78 1014.0
20260504001602 13 271 0.0 9.7 0.00 0.00 0.00 76 1013.9
20260504000144 13 294 6.4 8.0 0.00 0.00 0.00 76 1014.1
20260503234558 13 313 4.8 8.0 0.00 0.00 0.00 77 1014.2
20260503233129 13 332 3.2 8.0 0.00 0.00 0.00 79 1014.4
20260503231558 12 345 3.2 6.4 0.00 0.00 0.00 81 1014.5
20260503230002 12 256 1.6 6.4 0.00 0.00 0.00 81 1014.8
20260503224604 12 51 0.0 3.2 0.00 0.00 0.00 82 1014.7
20260503223121 12 51 0.0 1.6 0.00 0.00 0.00 82 1014.7
20260503221558 12 51 0.0 0.0 0.00 0.00 0.00 82 1014.7
20260503220130 12 51 0.0 0.0 0.00 0.00 0.00 81 1014.8
20260503214601 12 51 0.0 0.0 0.00 0.00 0.00 81 1014.8
20260503213139 13 51 0.0 0.0 0.00 0.00 0.00 80 1014.8
20260503211602 13 51 0.0 0.0 0.00 0.00 0.00 79 1014.7
20260503210127 13 51 0.0 3.2 0.00 0.00 0.00 79 1014.7
20260503204559 13 51 0.0 3.2 0.00 0.00 0.00 78 1014.6
20260503203133 13 51 0.0 3.2 0.00 0.00 0.00 77 1014.6
20260503201559 13 51 1.6 4.8 0.00 0.00 0.00 76 1014.6
20260503200141 14 51 1.6 3.2 0.00 0.00 0.00 76 1014.5
20260503194624 15 51 1.6 4.8 0.00 0.00 0.00 74 1014.4
20260503193130 15 51 0.0 0.0 0.00 0.00 0.00 74 1014.4
20260503191612 15 51 0.0 0.0 0.00 0.00 0.00 72 1014.3
20260503190137 16 51 0.0 1.6 0.00 0.00 0.00 71 1014.1
20260503184559 16 51 0.0 4.8 0.00 0.00 0.00 70 1014.0
20260503183124 17 51 0.0 3.2 0.00 0.00 0.00 70 1014.0
20260503181608 17 51 0.0 3.2 0.00 0.00 0.00 70 1013.9
20260503180130 17 51 0.0 3.2 0.00 0.00 0.00 68 1013.9
20260503174616 18 51 0.0 0.0 0.00 0.00 0.00 66 1013.8
20260503173134 18 51 0.0 1.6 0.00 0.00 0.00 65 1013.9